Weather History for K3T5 - January, 2013

Change the Weather History Date:

Tuesday, January 29, 2013

  Actual Average (KAUS) Record (KAUS)
Temperature  
Mean Temperature 71 °F 50 °F  
Max Temperature 82 °F 63 °F 85 °F (2013)
Min Temperature 60 °F 37 °F 17 °F (1951)
Degree Days  
Heating Degree Days 0 15  
Month to date heating degree days 462  
Since 1 July heating degree days 1209  
Cooling Degree Days 6 0  
Month to date cooling degree days 0  
Year to date cooling degree days 0  
Growing Degree Days 21 (Base 50)    
Moisture  
Dew Point 64 °F    
Average Humidity 75    
Maximum Humidity 88    
Minimum Humidity 50    
Precipitation  
Precipitation 0.03 in 0.07 in 1.05 in (2010)
Month to date precipitation 2.12  
Year to date precipitation 2.12  
Snow  
Snow 0.00 in - - ()
Month to date snowfall  
Since 1 July snowfall  
Snow Depth -    
Sea Level Pressure  
Sea Level Pressure 29.73 in    
Wind  
Wind Speed 12 mph (South)    
Max Wind Speed 23 mph    
Max Gust Speed 36 mph    
Visibility 9 miles    
Events Rain , Thunderstorm    
T = Trace of Precipitation, MM = Missing Value Source: NWS Daily Summary

Daily Weather History Graph

Daily Weather History Graph

Search for Another Location

Airport or City:

Trip Planner

Search our weather history database for the weather conditions in past years. The results will help you decide how hot, cold, wet, or windy it might be!

Date:

Astronomy

Jan. 29, 2013 Rise Set
Actual Time 7:19 AM CST 6:02 PM CST
Civil Twilight 6:54 AM CST 6:28 PM CST
Nautical Twilight 6:25 AM CST 6:56 PM CST
Astronomical Twilight 5:57 AM CST 7:25 PM CST
Moon 8:42 PM CST (1/29) 8:32 AM CST (1/29)
Length of Visible Light 11h 33m
Length of Day
10h 43m
Waning Gibbous, 93% of the Moon is Illuminated
Jan 29
Waning Gibbous
Feb 3
Last Quarter
Feb 10
New
Feb 17
First Quarter
Feb 25
Full

Hourly Weather History & Observations

Time (CST) Temp. Heat Index Dew Point Humidity Pressure Visibility Wind Dir Wind Speed Gust Speed Precip Events Conditions
12:15 AM 71.6 °F - 68.0 °F 88% 29.91 in 7.0 mi South 11.5 mph - N/A Rain Light Rain
12:35 AM 71.6 °F - 68.0 °F 88% 29.90 in 7.0 mi South 9.2 mph - N/A   Overcast
12:55 AM 71.6 °F - 68.0 °F 88% 29.89 in 7.0 mi SSE 9.2 mph - N/A   Mostly Cloudy
1:15 AM 71.6 °F - 68.0 °F 88% 29.88 in 10.0 mi SSE 10.4 mph - N/A   Mostly Cloudy
1:35 AM 73.4 °F - 68.0 °F 83% 29.87 in 7.0 mi South 11.5 mph 16.1 mph N/A   Mostly Cloudy
1:55 AM 71.6 °F - 68.0 °F 88% 29.87 in 7.0 mi South 11.5 mph - N/A   Drizzle
2:15 AM 71.6 °F - 68.0 °F 88% 29.86 in 7.0 mi South 9.2 mph - N/A Rain Rain
2:35 AM 71.6 °F - 68.0 °F 88% 29.86 in 7.0 mi South 11.5 mph - N/A Rain Light Rain
2:55 AM 71.6 °F - 68.0 °F 88% 29.85 in 7.0 mi South 13.8 mph 18.4 mph N/A   Mostly Cloudy
3:15 AM 71.6 °F - 68.0 °F 88% 29.83 in 7.0 mi SSE 11.5 mph 20.7 mph N/A   Mostly Cloudy
3:35 AM 71.6 °F - 68.0 °F 88% 29.83 in 10.0 mi South 9.2 mph - N/A   Mostly Cloudy
3:55 AM 71.6 °F - 68.0 °F 88% 29.83 in 10.0 mi South 9.2 mph - N/A   Mostly Cloudy
4:15 AM 73.4 °F - 68.0 °F 83% 29.83 in 10.0 mi South 9.2 mph - N/A   Mostly Cloudy
4:35 AM 73.4 °F - 68.0 °F 83% 29.83 in 7.0 mi South 11.5 mph - N/A Rain Light Rain
4:55 AM 71.6 °F - 68.0 °F 88% 29.83 in 7.0 mi South 9.2 mph - N/A Rain Rain
5:15 AM 71.6 °F - 68.0 °F 88% 29.83 in 7.0 mi South 10.4 mph 17.3 mph 0.01 in Rain Light Rain
5:35 AM 71.6 °F - 68.0 °F 88% 29.82 in 10.0 mi South 6.9 mph - 0.01 in   Mostly Cloudy
5:55 AM 71.6 °F - 68.0 °F 88% 29.82 in 10.0 mi South 9.2 mph - 0.01 in   Mostly Cloudy
6:15 AM 71.6 °F - 68.0 °F 88% 29.82 in 7.0 mi South 10.4 mph 18.4 mph N/A   Light Drizzle
6:55 AM 71.6 °F - 68.0 °F 88% 29.81 in 7.0 mi South 10.4 mph 18.4 mph N/A Rain Rain
7:15 AM 71.6 °F - 68.0 °F 88% 29.80 in 7.0 mi South 9.2 mph - N/A   Drizzle
7:35 AM 71.6 °F - 68.0 °F 88% 29.80 in 7.0 mi SSE 8.1 mph 16.1 mph N/A   Overcast
7:55 AM 71.6 °F - 68.0 °F 88% 29.80 in 7.0 mi SSE 9.2 mph - N/A   Mostly Cloudy
8:15 AM 71.6 °F - 68.0 °F 88% 29.79 in 10.0 mi SSE 11.5 mph 17.3 mph N/A   Mostly Cloudy
8:35 AM 71.6 °F - 66.2 °F 83% 29.78 in 10.0 mi SSE 11.5 mph 17.3 mph N/A   Mostly Cloudy
8:55 AM 73.4 °F - 66.2 °F 78% 29.77 in 10.0 mi SSE 13.8 mph 18.4 mph N/A   Overcast
9:15 AM 73.4 °F - 66.2 °F 78% 29.77 in 10.0 mi South 16.1 mph 23.0 mph N/A   Overcast
9:35 AM 73.4 °F - 66.2 °F 78% 29.75 in 10.0 mi South 18.4 mph 24.2 mph N/A   Overcast
9:55 AM 75.2 °F - 64.4 °F 69% 29.74 in 10.0 mi South 17.3 mph 28.8 mph N/A   Overcast
10:15 AM 75.2 °F - 64.4 °F 69% 29.74 in 10.0 mi South 19.6 mph 32.2 mph N/A   Mostly Cloudy
10:35 AM 75.2 °F - 64.4 °F 69% 29.73 in 10.0 mi South 19.6 mph 27.6 mph N/A   Mostly Cloudy
10:55 AM 77.0 °F - 64.4 °F 65% 29.71 in 10.0 mi South 18.4 mph 28.8 mph N/A   Mostly Cloudy
11:15 AM 77.0 °F - 64.4 °F 65% 29.71 in 10.0 mi South 20.7 mph 32.2 mph N/A   Mostly Cloudy
11:55 AM 77.0 °F - 64.4 °F 65% 29.70 in 10.0 mi South 16.1 mph 21.9 mph N/A   Mostly Cloudy
12:15 PM 78.8 °F - 64.4 °F 61% 29.68 in 10.0 mi South 21.9 mph 27.6 mph N/A   Mostly Cloudy
12:35 PM 78.8 °F - 64.4 °F 61% 29.66 in 10.0 mi South 18.4 mph 35.7 mph N/A   Mostly Cloudy
12:55 PM 78.8 °F - 64.4 °F 61% 29.65 in 10.0 mi SSW 23.0 mph 33.4 mph N/A   Mostly Cloudy
1:15 PM 78.8 °F - 64.4 °F 61% 29.63 in 10.0 mi South 20.7 mph 29.9 mph N/A   Mostly Cloudy
1:35 PM 80.6 °F 82.3 °F 64.4 °F 58% 29.61 in 10.0 mi South 21.9 mph 32.2 mph N/A   Mostly Cloudy
1:55 PM 78.8 °F - 64.4 °F 61% 29.60 in 10.0 mi South 17.3 mph 26.5 mph N/A   Mostly Cloudy
2:15 PM 80.6 °F 82.7 °F 66.2 °F 61% 29.59 in 10.0 mi South 17.3 mph 21.9 mph N/A   Mostly Cloudy
2:35 PM 80.6 °F 82.7 °F 66.2 °F 61% 29.58 in 10.0 mi South 17.3 mph 25.3 mph N/A   Mostly Cloudy
3:15 PM 80.6 °F 82.7 °F 66.2 °F 61% 29.56 in 10.0 mi South 16.1 mph 21.9 mph N/A   Scattered Clouds
3:35 PM 82.4 °F 84.6 °F 66.2 °F 58% 29.55 in 10.0 mi South 18.4 mph 24.2 mph N/A   Scattered Clouds
3:55 PM 80.6 °F 83.2 °F 68.0 °F 65% 29.55 in 10.0 mi SSE 15.0 mph 25.3 mph N/A   Mostly Cloudy
4:15 PM 80.6 °F 83.2 °F 68.0 °F 65% 29.54 in 10.0 mi SSE 17.3 mph 24.2 mph N/A   Mostly Cloudy
4:35 PM 80.6 °F 83.2 °F 68.0 °F 65% 29.54 in 10.0 mi SSE 13.8 mph 20.7 mph N/A   Mostly Cloudy
4:55 PM 80.6 °F 83.2 °F 68.0 °F 65% 29.53 in 10.0 mi South 12.7 mph - N/A   Scattered Clouds
5:15 PM 78.8 °F - 68.0 °F 69% 29.53 in 10.0 mi South 13.8 mph 29.9 mph N/A   Scattered Clouds
5:35 PM 78.8 °F - 68.0 °F 69% 29.54 in 10.0 mi South 15.0 mph 25.3 mph N/A   Clear
5:55 PM 77.0 °F - 69.8 °F 78% 29.55 in 7.0 mi SSE 12.7 mph 18.4 mph N/A   Clear
6:15 PM 77.0 °F - 69.8 °F 78% 29.54 in 7.0 mi SSE 10.4 mph 18.4 mph N/A   Clear
6:35 PM 75.2 °F - 69.8 °F 83% 29.54 in 10.0 mi SSE 12.7 mph 19.6 mph N/A   Clear
6:55 PM 75.2 °F - 69.8 °F 83% 29.55 in 10.0 mi South 16.1 mph 20.7 mph N/A   Clear
7:15 PM 73.4 °F - 53.6 °F 50% 29.61 in 10.0 mi NW 18.4 mph 26.5 mph N/A   Scattered Clouds
7:55 PM 62.6 °F - 51.8 °F 68% 29.70 in 10.0 mi NNW 15.0 mph 25.3 mph N/A   Overcast
8:15 PM 60.8 °F - 51.8 °F 72% 29.71 in 10.0 mi North 9.2 mph - N/A   Mostly Cloudy
8:35 PM 60.8 °F - 51.8 °F 72% 29.72 in 10.0 mi North 9.2 mph - N/A   Mostly Cloudy
8:55 PM 60.8 °F - 51.8 °F 72% 29.72 in 7.0 mi North 10.4 mph - 0.02 in Rain , Thunderstorm Thunderstorms and Rain
9:15 PM 60.8 °F - 51.8 °F 72% 29.73 in 10.0 mi North 4.6 mph - N/A   Mostly Cloudy
9:35 PM 60.8 °F - 51.8 °F 72% 29.73 in 10.0 mi Calm Calm - N/A   Overcast
9:55 PM 60.8 °F - 51.8 °F 72% 29.74 in 10.0 mi North 4.6 mph - N/A   Overcast
10:15 PM 60.8 °F - 51.8 °F 72% 29.75 in 10.0 mi North 4.6 mph - N/A   Overcast
10:35 PM 60.8 °F - 51.8 °F 72% 29.76 in 10.0 mi NNW 3.5 mph - N/A   Mostly Cloudy
10:55 PM 60.8 °F - 51.8 °F 72% 29.76 in 10.0 mi NNW 6.9 mph - N/A   Mostly Cloudy
11:15 PM 60.8 °F - 51.8 °F 72% 29.77 in 10.0 mi NNW 8.1 mph - N/A   Scattered Clouds
11:35 PM 62.6 °F - 50.0 °F 63% 29.78 in 10.0 mi NNW 9.2 mph - N/A   Scattered Clouds
11:55 PM 60.8 °F - 44.6 °F 55% 29.79 in 10.0 mi NNW 10.4 mph - N/A   Scattered Clouds